Weather History for KGKJ - February, 2013

Change the Weather History Date:

Wednesday, February 27, 2013

  Actual Average Record
Temperature  
Mean Temperature 36 °F -  
Max Temperature 39 °F 36 °F 64 °F (1951)
Min Temperature 32 °F 16 °F -22 °F (1963)
Degree Days  
Heating Degree Days 30    
Moisture  
Dew Point 32 °F    
Average Humidity 89    
Maximum Humidity 96    
Minimum Humidity 81    
Precipitation  
Precipitation 0.20 in - - ()
Sea Level Pressure  
Sea Level Pressure 29.57 in    
Wind  
Wind Speed 6 mph (SW)    
Max Wind Speed 14 mph    
Max Gust Speed 17 mph    
Visibility 4 miles    
Events Fog , Rain , Snow    
Averages and records for this station are not official NWS values.
T = Trace of Precipitation, MM = Missing Value Source: NWS Daily Summary

Daily Weather History Graph

Daily Weather History Graph

Search for Another Location

Airport or City:

Trip Planner

Search our weather history database for the weather conditions in past years. The results will help you decide how hot, cold, wet, or windy it might be!

Date:

Astronomy

Feb. 27, 2013 Rise Set
Actual Time 6:58 AM EST 6:09 PM EST
Civil Twilight 6:30 AM EST 6:37 PM EST
Nautical Twilight 5:58 AM EST 7:09 PM EST
Astronomical Twilight 5:26 AM EST 7:41 PM EST
Moon 8:31 PM EST (2/27) 7:30 AM EST (2/27)
Length of Visible Light 12h 06m
Length of Day
11h 10m
Waning Gibbous, 96% of the Moon is Illuminated
Feb 27
Waning Gibbous
Mar 4
Last Quarter
Mar 11
New
Mar 19
First Quarter
Mar 27
Full

Hourly Weather History & Observations

Time (EST) Temp. Windchill Dew Point Humidity Pressure Visibility Wind Dir Wind Speed Gust Speed Precip Events Conditions
12:27 AM 35.6 °F 29.2 °F 30.2 °F 81% 29.55 in 10.0 mi SE 8.1 mph - 0.01 in   Overcast
12:44 AM 35.6 °F 29.9 °F 30.2 °F 81% 29.55 in 10.0 mi Variable 6.9 mph - 0.02 in   Overcast
12:53 AM 36.0 °F 30.3 °F 30.9 °F 82% 29.57 in 10.0 mi Variable 6.9 mph - 0.02 in   Overcast
1:41 AM 35.6 °F 29.9 °F 30.2 °F 81% 29.54 in 10.0 mi Variable 6.9 mph - 0.01 in   Overcast
1:53 AM 36.0 °F 31.1 °F 30.9 °F 82% 29.57 in 10.0 mi Variable 5.8 mph 16.1 mph 0.02 in   Overcast
3:24 AM 35.6 °F 29.9 °F 32.0 °F 87% 29.52 in 2.5 mi SSE 6.9 mph - 0.00 in Snow Light Snow
3:35 AM 33.8 °F 27.0 °F 32.0 °F 93% 29.52 in 1.8 mi SE 8.1 mph - 0.01 in Snow Light Snow
3:53 AM 34.0 °F 28.8 °F 32.0 °F 92% 29.55 in 2.0 mi Variable 5.8 mph - 0.02 in Snow Light Snow
4:43 AM 33.8 °F 28.6 °F 32.0 °F 93% 29.52 in 1.5 mi Variable 5.8 mph - 0.01 in Snow Light Snow
4:53 AM 34.0 °F 29.8 °F 32.0 °F 92% 29.55 in 2.0 mi Variable 4.6 mph - 0.01 in Snow Light Snow
5:02 AM 33.8 °F 30.8 °F 32.0 °F 93% 29.52 in 3.0 mi Variable 3.5 mph - 0.01 in Snow Light Snow
5:12 AM 33.8 °F 28.6 °F 32.0 °F 93% 29.52 in 2.0 mi Variable 5.8 mph - 0.01 in Snow Light Snow
5:44 AM 33.8 °F 27.7 °F 30.2 °F 87% 29.52 in 1.2 mi Variable 6.9 mph - 0.02 in Snow Light Snow
5:53 AM 34.0 °F 29.8 °F 30.9 °F 89% 29.55 in 1.2 mi Variable 4.6 mph - 0.02 in Snow Light Snow
6:53 AM 33.1 °F 30.0 °F 32.0 °F 96% 29.56 in 1.0 mi Variable 3.5 mph - 0.00 in Snow Light Snow
7:24 AM 33.8 °F 30.8 °F 32.0 °F 93% 29.53 in 0.8 mi Variable 3.5 mph - 0.00 in Snow Light Snow
7:53 AM 33.1 °F 30.0 °F 32.0 °F 96% 29.57 in 0.5 mi Variable 3.5 mph - 0.00 in Fog , Snow Light Snow
8:19 AM 33.8 °F 30.8 °F 32.0 °F 93% 29.55 in 1.0 mi South 3.5 mph - 0.00 in Snow Light Snow
8:50 AM 33.8 °F 30.8 °F 32.0 °F 93% 29.55 in 2.0 mi Variable 3.5 mph - 0.02 in Rain Light Rain
8:53 AM 34.0 °F - 32.0 °F 92% 29.59 in 2.0 mi Calm Calm - 0.02 in Rain Light Rain
9:31 AM 35.6 °F 31.7 °F 33.8 °F 93% 29.55 in 1.8 mi South 4.6 mph - 0.05 in Rain Light Rain
9:44 AM 35.6 °F 29.9 °F 33.8 °F 93% 29.55 in 2.0 mi SSW 6.9 mph - 0.06 in Rain Light Rain
10:13 AM 35.6 °F 30.7 °F 33.8 °F 93% 29.56 in 3.0 mi Variable 5.8 mph - 0.02 in   Overcast
10:53 AM 37.0 °F 32.4 °F 35.1 °F 93% 29.60 in 7.0 mi SW 5.8 mph - 0.05 in   Overcast
11:24 AM 37.4 °F 33.8 °F 35.6 °F 93% 29.57 in 1.8 mi SW 4.6 mph - N/A   Overcast
11:44 AM 37.4 °F 32.1 °F 35.6 °F 93% 29.58 in 0.5 mi SW 6.9 mph - N/A Fog Fog
11:53 AM 37.0 °F 31.6 °F 35.1 °F 93% 29.60 in 0.5 mi SW 6.9 mph - N/A Fog Fog
12:19 PM 37.4 °F 32.1 °F 35.6 °F 93% 29.57 in 1.2 mi Variable 6.9 mph - N/A   Overcast
12:31 PM 37.4 °F 33.8 °F 35.6 °F 93% 29.57 in 2.5 mi Variable 4.6 mph - N/A   Overcast
12:40 PM 37.4 °F 34.9 °F 35.6 °F 93% 29.56 in 3.0 mi SW 3.5 mph - N/A   Overcast
12:53 PM 37.9 °F 35.5 °F 36.0 °F 93% 29.59 in 4.0 mi WSW 3.5 mph - N/A   Overcast
1:13 PM 39.2 °F 35.9 °F 35.6 °F 87% 29.57 in 6.0 mi SW 4.6 mph - N/A   Overcast
1:53 PM 39.0 °F - 35.1 °F 86% 29.60 in 9.0 mi Calm Calm - N/A   Overcast
2:05 PM 39.2 °F 37.0 °F 35.6 °F 87% 29.57 in 9.0 mi SW 3.5 mph - N/A   Overcast
2:27 PM 39.2 °F 31.2 °F 33.8 °F 81% 29.57 in 10.0 mi WSW 13.8 mph 17.3 mph N/A   Overcast
2:53 PM 39.0 °F 32.3 °F 34.0 °F 82% 29.60 in 10.0 mi WSW 10.4 mph - N/A   Overcast
3:53 PM 39.0 °F 34.8 °F 34.0 °F 82% 29.60 in 6.0 mi SSW 5.8 mph - N/A   Haze
4:11 PM 39.2 °F 33.6 °F 33.8 °F 81% 29.58 in 6.0 mi SSW 8.1 mph - N/A   Haze
4:53 PM 39.0 °F 33.4 °F 34.0 °F 82% 29.61 in 8.0 mi SSW 8.1 mph - N/A   Overcast
5:53 PM 37.9 °F 32.1 °F 34.0 °F 86% 29.62 in 5.0 mi SW 8.1 mph - 0.00 in Rain Light Rain
6:51 PM 35.6 °F 29.9 °F 33.8 °F 93% 29.60 in 3.0 mi SSW 6.9 mph - 0.02 in Rain Light Rain
6:53 PM 36.0 °F 31.1 °F 34.0 °F 93% 29.64 in 3.0 mi SW 5.8 mph - 0.02 in Rain Light Rain
7:53 PM 35.1 °F 28.6 °F 32.0 °F 89% 29.65 in 5.0 mi SW 8.1 mph - 0.02 in   Overcast
8:53 PM 33.1 °F 27.7 °F 30.9 °F 92% 29.65 in 1.8 mi SW 5.8 mph - 0.00 in Snow Light Snow
9:23 PM 33.8 °F 28.6 °F 30.2 °F 87% 29.61 in 2.0 mi SW 5.8 mph - 0.00 in Snow Light Snow
9:53 PM 33.1 °F 26.9 °F 30.9 °F 92% 29.63 in 2.5 mi SSW 6.9 mph - 0.00 in Snow Light Snow
10:00 PM 33.8 °F 29.6 °F 30.2 °F 87% 29.59 in 3.0 mi SW 4.6 mph - 0.00 in Snow Light Snow
10:32 PM 33.8 °F 27.7 °F 30.2 °F 87% 29.59 in 1.8 mi SW 6.9 mph - 0.00 in Snow Light Snow
10:44 PM 33.8 °F 27.0 °F 30.2 °F 87% 29.58 in 2.5 mi SW 8.1 mph - 0.00 in   Overcast
10:53 PM 33.1 °F 26.9 °F 30.0 °F 89% 29.62 in 2.5 mi SW 6.9 mph - 0.00 in Snow Light Snow
11:07 PM 33.8 °F 27.0 °F 30.2 °F 87% 29.58 in 3.0 mi SW 8.1 mph - 0.00 in Snow Light Snow
11:27 PM 33.8 °F 28.6 °F 30.2 °F 87% 29.58 in 2.5 mi SW 5.8 mph 17.3 mph 0.00 in Snow Light Snow
11:35 PM 32.0 °F 25.6 °F 30.2 °F 93% 29.58 in 2.0 mi SW 6.9 mph - 0.00 in Snow Light Snow
11:48 PM 32.0 °F 24.8 °F 28.4 °F 87% 29.58 in 2.0 mi SW 8.1 mph - 0.00 in Snow Light Snow
11:53 PM 32.0 °F 24.2 °F 28.9 °F 88% 29.61 in 2.0 mi SW 9.2 mph - 0.00 in Snow Light Snow